Weather reports worldwide

Advertisment
Granada/Aeropuerto, Spain (8419): temperature & dewpoint: 16.07.2019 02:00:00 - 22.07.2019 02:00:00 (CEST)Granada/Aeropuerto, Spain (8419): wind speed: 16.07.2019 02:00:00 - 22.07.2019 02:00:00 (CEST)Granada/Aeropuerto, Spain (8419): wind direction: 16.07.2019 02:00:00 - 22.07.2019 02:00:00 (CEST)Granada/Aeropuerto, Spain (8419): reduced air pressure: 16.07.2019 02:00:00 - 22.07.2019 02:00:00 (CEST)Granada/Aeropuerto, Spain (8419): visibility: 16.07.2019 02:00:00 - 22.07.2019 02:00:00 (CEST)
Date & Time tt [°C] td [°C] ff [km/h] ff [kn] dd ppp [hPa] vv [km]
22.07.2019 02:00:00 25,3 17,2 9 5 S 1017,4 20
22.07.2019 01:00:00 26,7 17,2 0 0 N 1017,5 22
22.07.2019 00:00:00 27,8 17,3 9 5 SE 1016,5 23
21.07.2019 23:00:00 28,6 17,2 18 10 S 1015,3 20
21.07.2019 22:00:00 29,1 17,0 24 13 SSE 1014,1 19
21.07.2019 21:00:00 33,3 16,2 24 13 S 1011,9 16
21.07.2019 20:00:00 37,4 15,2 18 10 W 1010,1 20
21.07.2019 19:00:00 38,4 15,5 21 11 W 1009,7 18
21.07.2019 18:00:00 39,2 15,4 16 9 W 1010,0 25
21.07.2019 17:00:00 39,5 14,0 8 4 W 1010,4 25
21.07.2019 16:00:00 38,7 14,4 0 0 N 1011,2 20
21.07.2019 15:00:00 37,4 13,6 5 3 WSW 1012,2 25
21.07.2019 14:00:00 36,0 15,2 4 2 WNW 1013,2 20
21.07.2019 13:00:00 33,5 14,6 4 2 N 1014,0 14
21.07.2019 12:00:00 32,3 15,0 2 1 N 1014,3 16
21.07.2019 11:00:00 29,5 15,9 4 2 NW 1015,0 20
21.07.2019 10:00:00 26,7 16,5 4 2 W 1015,8 15
21.07.2019 09:00:00 24,5 16,0 2 1 WSW 1016,2 15
21.07.2019 08:00:00 21,3 13,9 0 0 N 1016,5 25
21.07.2019 07:00:00 20,9 13,2 5 3 SW 1016,3 22
21.07.2019 06:00:00 21,1 13,8 0 0 N 1016,2 26
21.07.2019 05:00:00 21,3 13,7 0 0 N 1016,3 24
21.07.2019 04:00:00 22,7 13,2 0 0 N 1016,0 18
21.07.2019 03:00:00 24,1 14,4 0 0 N 1015,8 23
21.07.2019 02:00:00 24,5 14,6 5 3 SW 1015,4 24
21.07.2019 01:00:00 25,6 15,1 2 1 S 1014,9 23
21.07.2019 00:00:00 27,5 15,2 0 0 N 1013,7 22
20.07.2019 23:00:00 29,2 15,0 18 10 SSE 1012,7 20
20.07.2019 22:00:00 31,2 12,5 9 5 SSE 1011,0 19
20.07.2019 21:00:00 34,0 12,6 9 5 WNW 1009,5 20
20.07.2019 20:00:00 36,1 13,4 13 7 W 1008,4 15
20.07.2019 19:00:00 37,9 12,2 16 9 W 1007,8 23
20.07.2019 18:00:00 39,1 10,5 9 5 SW 1007,8 14
20.07.2019 17:00:00 38,9 10,3 11 6 WSW 1008,1 20
20.07.2019 16:00:00 38,0 11,5 9 5 WSW 1008,7 19
20.07.2019 15:00:00 36,9 10,5 8 4 W 1009,6 25
20.07.2019 14:00:00 35,0 9,4 4 2 NE 1010,6 25
20.07.2019 13:00:00 32,8 11,9 4 2 NNE 1011,4 30
20.07.2019 12:00:00 31,0 10,9 0 0 N 1012,1 30
20.07.2019 11:00:00 29,6 12,1 0 0 N 1012,4 20
20.07.2019 10:00:00 26,6 11,2 0 0 N 1013,3 30
20.07.2019 09:00:00 23,4 12,9 8 4 WSW 1013,7 20
20.07.2019 08:00:00 19,2 12,1 4 2 WSW 1013,9 20
20.07.2019 07:00:00 19,6 11,2 0 0 N 1013,5 25
20.07.2019 06:00:00 21,2 10,7 4 2 S 1013,1 28
20.07.2019 05:00:00 20,9 12,3 4 2 SW 1013,0 28
20.07.2019 04:00:00 21,6 12,1 0 0 N 1012,7 30
20.07.2019 03:00:00 22,6 12,5 0 0 N 1012,5 30
20.07.2019 02:00:00 23,6 12,9 2 1 SSW 1012,3 30
20.07.2019 01:00:00 24,1 13,3 2 1 WNW 1011,9 30
20.07.2019 00:00:00 26,8 12,4 0 0 N 1010,9 30
19.07.2019 23:00:00 28,6 12,5 9 5 SSE 1010,0 30
19.07.2019 22:00:00 31,9 12,7 8 4 SW 1008,3 30
19.07.2019 21:00:00 34,4 12,7 5 3 SW 1007,2 28
19.07.2019 20:00:00 36,7 11,5 13 7 S 1005,8 25
19.07.2019 19:00:00 38,6 11,1 13 7 SSE 1005,4 30
19.07.2019 18:00:00 39,1 10,9 5 3 W 1005,5 22
19.07.2019 17:00:00 38,6 10,0 5 3 E 1006,3 30
19.07.2019 16:00:00 38,3 10,6 4 2 NNW 1007,2 29
19.07.2019 15:00:00 36,8 9,4 5 3 NNW 1008,4 30
19.07.2019 14:00:00 35,8 10,2 4 2 NE 1009,4 30
19.07.2019 13:00:00 34,3 10,2 4 2 S 1010,5 19
19.07.2019 12:00:00 31,4 11,2 2 1 NNE 1011,3 30
19.07.2019 11:00:00 28,4 12,9 2 1 NNE 1012,4 25
19.07.2019 10:00:00 24,8 14,0 2 1 NNW 1013,6 16
19.07.2019 09:00:00 21,9 13,1 0 0 N 1014,1 25
19.07.2019 08:00:00 17,9 12,6 2 1 WNW 1015,0 20
19.07.2019 07:00:00 17,1 12,2 2 1 NNW 1014,9 21
19.07.2019 06:00:00 18,1 12,1 4 2 SSE 1014,4 23
19.07.2019 05:00:00 19,2 12,5 2 1 S 1014,1 30
19.07.2019 04:00:00 20,2 12,7 4 2 SW 1013,9 30
19.07.2019 03:00:00 21,0 12,9 4 2 SW 1014,1 27
19.07.2019 02:00:00 21,7 13,0 0 0 N 1014,2 30
19.07.2019 01:00:00 22,8 14,9 0 0 N 1013,9 29
19.07.2019 00:00:00 25,2 13,0 4 2 NNW 1013,2 29
18.07.2019 23:00:00 25,9 14,4 4 2 N 1012,5 30
18.07.2019 22:00:00 29,3 12,7 8 4 SSW 1010,9 30
18.07.2019 21:00:00 31,8 13,5 15 8 SW 1009,5 24
18.07.2019 20:00:00 34,2 13,6 22 12 S 1008,1 20
18.07.2019 19:00:00 36,9 13,2 5 3 SSE 1007,1 30
18.07.2019 18:00:00 36,8 9,4 9 5 SW 1007,5 30
18.07.2019 17:00:00 36,0 10,2 4 2 NE 1008,2 25
18.07.2019 16:00:00 35,0 11,2 5 3 NNW 1008,9 24
18.07.2019 15:00:00 34,3 10,8 4 2 W 1009,8 25
18.07.2019 14:00:00 33,2 11,6 8 4 SW 1010,8 20
18.07.2019 13:00:00 30,4 11,4 4 2 NW 1012,1 19
18.07.2019 12:00:00 27,7 13,5 0 0 N 1013,2 28
18.07.2019 11:00:00 25,5 12,9 0 0 N 1013,8 20
18.07.2019 10:00:00 22,2 12,7 4 2 NNW 1014,7 19
18.07.2019 09:00:00 20,0 12,3 4 2 WNW 1015,0 15
18.07.2019 08:00:00 17,4 11,5 4 2 SW 1015,2 15
18.07.2019 07:00:00 16,2 10,7 0 0 N 1015,3 18
18.07.2019 06:00:00 17,2 10,8 0 0 N 1015,1 18
18.07.2019 05:00:00 18,1 11,2 2 1 WSW 1014,7 24
18.07.2019 04:00:00 19,3 11,7 0 0 N 1014,6 21
18.07.2019 03:00:00 20,4 11,9 4 2 SW 1014,4 21
18.07.2019 02:00:00 21,8 11,8 13 7 WSW 1014,4 24
18.07.2019 01:00:00 22,6 11,2 13 7 WSW 1014,2 30
18.07.2019 00:00:00 23,3 12,3 11 6 SW 1013,6 23
17.07.2019 23:00:00 24,4 12,4 9 5 WSW 1013,2 25
17.07.2019 22:00:00 25,6 13,4 4 2 WNW 1012,1 24
17.07.2019 21:00:00 28,0 13,8 18 10 W 1011,0 23
17.07.2019 20:00:00 29,6 14,6 28 15 W 1009,8 22
17.07.2019 19:00:00 31,3 14,7 24 13 W 1009,2 19
17.07.2019 18:00:00 34,4 3,0 21 11 WSW 1008,8 30
17.07.2019 17:00:00 34,3 1,7 24 13 W 1008,9 30
17.07.2019 16:00:00 34,1 4,4 22 12 W 1009,3 30
17.07.2019 15:00:00 32,9 11,4 16 9 WNW 1009,9 28
17.07.2019 14:00:00 32,3 13,6 18 10 WNW 1010,5 28
17.07.2019 13:00:00 30,5 13,4 9 5 WNW 1011,3 25
17.07.2019 12:00:00 28,5 14,0 8 4 WNW 1012,1 19
17.07.2019 11:00:00 26,1 14,5 0 0 N 1012,7 25
17.07.2019 10:00:00 23,7 14,4 4 2 WNW 1013,6 18
17.07.2019 09:00:00 21,6 13,8 4 2 W 1013,8 20
17.07.2019 08:00:00 18,0 12,7 0 0 N 1014,4 18
17.07.2019 07:00:00 17,5 12,0 0 0 N 1014,3 18
17.07.2019 06:00:00 17,9 12,0 4 2 SSW 1014,2 19
17.07.2019 05:00:00 17,9 11,7 0 0 N 1014,1 23
17.07.2019 04:00:00 19,3 12,5 5 3 SSW 1014,0 20
17.07.2019 03:00:00 20,7 12,4 0 0 N 1013,8 25
17.07.2019 02:00:00 21,8 12,7 8 4 WSW 1013,8 26
17.07.2019 01:00:00 22,3 11,1 13 7 S 1013,6 24
17.07.2019 00:00:00 24,5 13,7 5 3 ESE 1013,2 18
16.07.2019 23:00:00 27,3 14,7 0 0 N 1012,1 25
16.07.2019 22:00:00 28,9 14,0 9 5 WSW 1010,9 21
16.07.2019 21:00:00 32,2 12,9 21 11 W 1009,6 28
16.07.2019 20:00:00 35,3 10,5 21 11 W 1008,7 30
16.07.2019 19:00:00 36,8 11,3 18 10 W 1008,0 18
16.07.2019 18:00:00 37,3 8,7 16 9 SW 1008,1 29
16.07.2019 17:00:00 37,7 8,9 26 14 W 1008,3 30
16.07.2019 16:00:00 38,2 7,3 22 12 WSW 1008,3 30
16.07.2019 15:00:00 38,0 4,8 5 3 S 1008,4 30
16.07.2019 14:00:00 36,1 11,0 9 5 NNE 1009,0 30
16.07.2019 13:00:00 34,3 11,3 8 4 WNW 1009,9 30
16.07.2019 12:00:00 31,8 14,4 2 1 NNE 1010,6 20
16.07.2019 11:00:00 28,5 13,2 0 0 N 1011,7 20
16.07.2019 10:00:00 25,1 13,6 0 0 N 1012,7 14
16.07.2019 09:00:00 22,2 13,0 0 0 N 1013,3 18
16.07.2019 08:00:00 18,8 12,1 0 0 N 1014,0 15
16.07.2019 07:00:00 17,4 11,5 0 0 N 1014,0 22
16.07.2019 06:00:00 18,3 12,0 0 0 N 1013,6 24
16.07.2019 05:00:00 19,1 12,3 4 2 WSW 1013,4 22
16.07.2019 04:00:00 19,8 12,3 0 0 N 1013,4 27
16.07.2019 03:00:00 21,6 13,2 0 0 N 1013,1 28
16.07.2019 02:00:00 23,6 13,7 0 0 N 1012,8 25

tt = temperature
td = dewpoint
ff = wind speed
dd = wind direction
ppp = reduced air pressure
vv = visibility

Next stations